Voltar ao catálogo

ATLAS 5 CENTAUR DEB

LostHEO
NORAD 43992·DEBRIS·🇺🇸 United States

Lançado Sep 17, 2014 de Cape Canaveral Space Force Station

Loading…

Próximas Passagens (próximas 24 horas)

TLE

ObsoletoSource: Space-Track

Época: Jan 25, 2024, 02:52 UTC

1 43992U 14055AX  24025.11965262 -.00000023  00000-0  00000-0 0  9993
2 43992  20.3634 224.6253 4694005  16.8485 354.6592  1.86054733 36089

Acompanhe ATLAS 5 CENTAUR DEB em tempo real com AllMySat

Download on the App Store